Theta_e
320 317 319 315 299 301 297 300 306 306 308 314 314 312 311 315 313 307 329 338 339 337 338 344 346 349 348 347 346 346 345 344 344 342 341 340 339 343 343 344 344 345 346 346 343 341 339 337 336
317 317 317 309 294 290 294 303 303 307 315 315 314 314 311 313 323 322 326 338 339 338 337 342 344 347 347 346 346 346 345 344 342 341 340 339 338 341 343 344 343 345 346 344 342 340 338 336 335
317 319 308 300 295 290 291 301 304 311 315 314 313 316 318 317 324 325 334 339 339 336 335 340 344 346 346 346 345 345 344 344 342 339 337 337 337 339 342 343 343 344 344 343 341 339 337 335 334
315 311 307 296 293 297 297 301 306 308 313 315 315 313 320 327 326 330 338 338 337 336 337 341 344 346 346 345 344 343 343 343 341 339 337 338 338 338 340 342 342 343 342 341 338 337 335 334 333
315 310 296 293 294 297 300 305 306 305 309 313 315 313 317 326 332 333 336 337 335 336 340 341 342 344 345 345 343 343 342 343 342 341 340 338 339 339 340 341 341 342 342 339 337 336 334 333 331
305 303 293 290 293 298 299 303 303 302 308 312 311 313 318 327 330 335 337 336 337 336 338 340 336 339 340 342 342 340 339 340 340 340 341 339 340 340 340 341 341 341 341 338 336 335 334 332 331
303 299 293 292 293 295 301 305 301 300 302 309 317 309 320 325 330 334 336 337 335 335 337 336 336 333 332 334 335 336 336 337 339 340 339 338 339 340 341 341 341 340 340 338 335 334 332 330 329
305 300 294 292 293 296 304 304 305 303 302 317 320 311 314 324 334 334 334 335 333 334 334 333 331 329 330 330 330 332 334 336 336 336 334 333 334 335 335 334 338 340 339 339 337 335 333 330 328
307 294 291 295 296 299 304 303 307 309 305 312 316 318 323 330 334 331 330 331 331 332 332 332 329 328 328 329 328 329 331 331 330 330 328 328 334 334 332 330 335 338 338 337 337 335 333 330 327
301 295 296 300 300 297 301 304 301 301 302 302 312 317 325 330 329 328 327 326 327 328 328 330 329 327 327 330 328 331 332 331 331 330 330 332 332 331 330 324 327 332 333 335 336 333 329 324 322
299 295 298 300 301 300 301 302 300 297 296 304 304 308 312 322 325 326 326 327 328 329 328 328 328 326 327 326 327 331 330 329 330 329 328 331 332 330 330 325 327 327 327 330 331 328 324 323 322
295 295 296 297 298 299 299 302 297 296 300 304 304 305 305 306 308 309 313 314 320 327 327 328 329 328 326 327 326 331 331 331 331 329 326 329 330 329 328 326 326 327 328 328 329 327 324 324 324
293 294 297 297 297 296 300 299 297 295 302 304 303 302 300 301 303 306 308 311 313 315 324 327 328 328 327 323 325 328 328 330 330 329 328 325 325 325 327 326 327 326 327 327 326 326 327 326 325
295 296 296 296 296 297 296 297 297 296 299 301 301 300 299 299 300 302 304 307 309 312 312 318 329 328 328 325 323 326 328 327 329 329 329 328 325 326 325 325 325 324 325 326 326 325 324 322 322
296 291 294 294 295 295 297 293 291 295 299 297 298 300 299 298 299 300 302 302 305 308 310 311 319 330 328 328 327 327 325 326 326 329 328 328 326 325 324 324 325 324 321 322 324 323 322 321 322
293 292 287 293 294 295 294 286 292 296 295 294 294 295 297 297 297 299 299 301 303 304 306 309 311 319 325 327 329 329 329 327 325 326 326 326 326 325 323 322 323 324 320 320 320 319 318 317 319
291 284 286 290 294 294 292 288 292 295 295 293 293 294 295 295 296 299 298 300 302 302 303 305 307 307 313 320 323 329 329 328 328 328 326 325 325 325 322 323 322 323 320 318 318 317 317 315 315
284 284 288 286 290 291 289 287 290 293 293 291 291 292 293 294 294 296 297 299 300 300 301 302 305 306 307 313 324 327 327 328 328 327 326 326 324 323 322 323 322 323 321 318 317 315 315 314 313
289 287 286 289 292 289 287 287 288 290 290 290 290 290 292 293 296 297 297 297 298 299 299 299 300 302 305 306 312 322 319 324 326 325 325 325 325 324 322 321 321 323 321 320 319 316 313 312 312
289 286 285 289 292 289 287 287 289 290 289 290 290 290 291 292 293 295 296 296 296 297 298 298 299 300 302 304 305 310 315 324 326 326 325 325 325 325 324 323 322 321 320 319 320 318 313 313 311
288 285 284 284 289 290 286 284 287 290 291 291 292 291 291 291 291 292 294 294 295 295 296 297 298 298 300 302 304 307 315 323 324 324 324 324 325 325 324 324 323 321 321 320 319 319 317 313 311
285 289 288 287 284 280 285 274 284 288 288 290 290 290 289 290 292 292 292 293 294 295 295 296 297 297 299 301 301 302 304 308 317 322 324 325 324 324 324 323 323 322 322 321 320 319 319 316 312
287 290 287 287 284 282 282 275 282 288 286 287 288 289 289 290 291 291 292 293 293 294 294 294 295 296 297 298 299 300 301 304 307 311 323 324 324 324 324 323 323 322 322 321 321 320 319 318 315
291 289 287 285 283 274 281 278 279 283 285 287 288 288 289 289 290 291 292 293 292 292 292 292 293 294 295 296 296 298 299 301 302 306 309 319 322 323 323 323 323 323 322 321 321 321 320 319 317
289 283 276 274 272 272 281 277 280 286 287 287 287 287 287 288 289 289 290 290 291 291 291 292 292 292 293 294 295 296 298 300 302 304 307 309 314 321 322 323 323 322 322 322 322 321 320 320 318
286 284 272 267 271 273 280 276 281 289 289 289 289 288 288 288 289 289 289 290 289 290 290 290 291 291 292 293 294 296 298 300 302 304 306 307 309 312 322 322 322 322 322 322 322 321 320 320 319
283 278 286 280 275 272 278 281 286 288 288 289 288 288 287 288 288 288 289 289 289 289 289 290 290 290 291 292 293 295 298 298 300 302 305 307 310 312 321 322 321 321 321 321 321 320 319 318 318
285 288 277 277 267 267 275 278 279 283 286 288 287 286 287 288 288 288 288 288 289 290 290 290 290 289 290 291 292 294 296 298 300 302 303 306 309 312 317 321 321 321 320 320 320 319 319 317 317
283 280 284 283 278 270 269 275 283 285 286 285 287 287 286 287 287 287 287 288 288 289 289 288 288 288 289 290 291 293 294 296 299 301 304 306 308 312 315 313 309 309 309 312 315 311 314 313 307
285 283 283 275 274 277 274 274 288 287 287 288 288 289 287 287 287 286 286 286 286 287 289 288 288 288 288 289 291 292 292 293 295 296 297 300 299 300 301 302 302 302 304 305 305 303 301 301 299
Wind_Speed
18 9 4 2 1 4 8 12 14 2 7 7 9 9 7 12 6 4 6 14 20 16 14 13 14 15 17 18 18 15 14 15 14 13 12 11 10 12 10 9 8 13 19 21 22 21 20 20 19
9 15 4 3 3 5 7 14 11 2 9 7 6 6 5 7 8 7 6 18 17 15 13 12 12 16 17 18 17 16 14 15 14 12 12 10 9 11 11 10 8 16 22 23 22 20 19 18 18
11 9 2 3 4 6 7 8 8 7 7 3 1 1 6 5 8 7 12 16 15 15 12 11 15 16 16 16 16 15 15 15 13 11 9 9 8 10 11 11 9 17 21 21 21 20 19 18 17
5 3 4 4 8 8 8 8 13 10 6 4 5 5 6 6 5 8 13 15 15 13 14 12 15 16 16 15 14 16 15 14 12 10 10 10 9 8 10 10 10 16 20 20 19 19 17 16 16
2 4 3 6 9 10 5 9 10 11 11 4 2 4 6 5 7 11 14 13 13 11 14 13 15 14 14 15 15 13 13 13 12 9 9 7 9 6 10 10 11 16 19 20 18 18 17 15 14
3 1 4 5 9 2 6 11 10 9 12 6 1 8 5 3 7 14 11 9 11 13 12 12 13 12 12 13 13 12 12 12 10 8 9 6 7 6 9 11 11 15 18 19 18 17 17 15 12
3 3 7 10 7 7 10 10 6 8 9 4 10 4 4 7 11 9 8 9 11 8 11 10 9 10 11 10 11 12 11 9 8 9 8 8 10 9 10 10 11 14 17 19 17 17 15 15 11
4 2 6 5 4 6 8 7 6 7 9 7 8 6 2 4 10 9 6 8 9 7 8 12 9 8 6 7 10 9 10 10 10 9 7 9 10 9 10 9 9 12 17 18 17 15 14 15 11
3 3 3 8 7 8 9 7 13 8 5 11 5 9 5 5 9 10 6 7 9 4 5 7 11 9 8 7 7 8 9 10 11 7 8 8 5 5 6 9 10 9 13 16 17 14 13 12 9
4 3 8 7 10 10 13 9 8 10 9 15 20 19 9 5 4 9 6 7 8 7 5 5 8 9 9 8 7 6 7 5 5 6 6 4 5 5 8 8 10 8 10 13 16 15 14 9 3
5 6 8 11 9 9 11 8 9 13 9 11 13 19 20 11 5 6 5 6 5 8 4 5 6 6 9 8 5 3 4 4 5 7 6 6 4 4 5 3 3 4 7 4 7 8 4 5 4
2 7 7 8 7 6 9 11 16 12 9 10 13 14 17 16 15 15 13 16 12 8 7 5 6 4 8 5 5 5 4 4 4 5 5 7 4 4 3 3 4 5 4 6 5 3 4 5 5
8 4 7 4 5 5 8 6 10 13 11 11 13 17 16 15 15 13 13 13 14 14 9 9 6 6 5 6 5 4 5 4 5 4 3 4 5 5 3 3 3 4 4 5 5 5 4 3 5
2 2 5 8 7 4 8 8 7 10 7 11 12 13 13 14 15 13 15 15 14 12 12 17 6 5 4 5 6 3 5 5 5 4 4 3 5 5 3 3 3 4 3 4 4 4 4 4 2
0 4 5 9 8 4 7 6 8 8 5 9 9 9 12 14 13 15 13 11 11 15 17 17 16 5 4 5 5 4 5 5 4 5 6 6 4 6 6 3 2 4 1 3 4 4 4 4 3
5 2 5 8 9 4 5 5 7 8 6 7 9 7 10 12 13 12 12 11 14 10 15 14 13 12 6 5 1 3 2 4 4 4 5 6 5 5 5 4 3 4 3 2 2 3 1 1 3
6 4 5 3 9 8 6 4 7 8 7 7 8 7 8 7 11 8 12 8 9 12 10 11 11 15 10 9 10 4 4 3 4 4 4 7 6 7 5 4 3 3 4 3 3 2 3 3 2
7 6 7 4 7 9 6 5 6 7 7 8 8 8 8 8 8 9 9 11 11 9 6 5 8 11 12 4 7 4 1 2 3 4 3 7 6 7 6 5 5 3 3 2 2 3 2 2 3
6 6 8 7 7 6 3 4 5 6 8 8 8 8 8 9 8 7 8 9 8 9 10 11 10 10 8 7 6 2 4 2 2 4 5 4 4 6 6 5 6 7 6 5 5 3 4 3 2
6 7 8 5 1 4 3 3 5 5 5 6 7 7 8 9 9 11 11 11 11 10 8 8 9 8 7 5 4 3 5 2 2 6 5 5 5 4 3 4 4 5 5 5 6 5 2 3 4
7 6 8 6 10 8 6 7 8 5 6 6 7 6 7 9 9 9 10 11 9 11 10 10 8 8 6 7 6 6 4 4 2 5 6 9 10 9 9 8 5 4 5 5 5 5 6 4 2
3 8 8 7 6 2 2 4 7 8 6 8 7 7 7 8 7 8 10 11 11 10 9 10 9 8 7 7 6 8 5 5 5 3 5 6 11 12 12 10 10 10 5 6 6 7 6 5 5
5 9 6 6 6 6 4 1 4 7 6 8 7 7 7 7 7 8 8 9 10 10 10 10 11 10 8 7 7 6 5 5 6 6 5 7 8 10 10 11 11 11 8 9 9 8 8 7 5
12 6 6 6 2 2 4 3 1 2 4 5 6 6 6 7 8 7 7 8 7 7 9 8 9 9 10 10 9 8 8 7 7 7 5 4 5 6 9 9 9 8 8 8 7 7 10 9 8
12 5 2 3 3 2 2 2 3 6 5 4 4 5 5 5 6 7 8 7 8 8 9 10 11 11 10 9 9 9 9 8 7 5 4 6 6 3 7 9 8 8 9 9 7 7 7 7 8
7 6 3 3 5 5 3 4 1 5 3 1 1 3 5 6 6 6 6 7 7 8 8 9 10 11 12 11 11 8 8 5 6 5 3 4 4 5 6 8 7 7 9 10 10 8 7 8 8
6 5 1 1 2 2 4 3 2 2 4 6 3 1 6 6 6 7 7 6 6 7 7 9 10 11 11 11 10 10 9 8 7 8 8 5 5 5 5 7 7 6 6 6 6 6 7 6 7
2 2 1 2 5 5 4 4 2 3 1 4 2 5 6 6 7 7 7 7 6 6 8 8 9 10 10 11 9 9 10 10 9 8 7 8 7 5 7 5 5 5 5 5 5 4 4 5 4
1 1 2 1 2 1 4 5 2 4 5 4 5 5 5 5 6 6 6 6 7 7 8 9 8 9 9 10 10 10 9 10 9 8 8 8 6 6 4 7 9 8 6 5 4 6 3 3 7
4 3 2 2 2 1 0 9 3 4 2 1 3 2 4 3 4 5 6 6 7 7 8 8 8 10 10 10 10 9 9 9 9 8 9 8 9 9 9 10 10 9 7 8 7 8 8 9 10
Wind_Direction
309 296 260 229 237 212 261 261 263 11 308 35 17 15 31 42 23 101 133 113 128 133 141 144 149 147 144 139 139 137 136 130 125 121 116 106 100 90 85 68 79 135 117 116 109 109 105 106 103
306 288 236 264 195 244 266 226 251 141 67 42 16 328 301 83 71 129 65 128 133 133 145 141 133 134 137 138 139 139 138 131 127 119 115 109 106 94 82 74 84 120 121 113 112 110 110 108 107
259 262 265 196 207 242 275 10 10 86 89 18 23 324 6 65 88 136 124 138 133 132 148 135 131 135 134 134 137 138 136 129 127 125 119 116 116 106 88 81 103 117 115 112 112 112 112 112 113
316 200 272 277 249 239 243 7 355 350 107 121 280 130 82 8 119 104 126 128 129 145 129 129 132 137 137 135 135 138 135 128 129 127 126 120 117 110 95 88 116 122 117 115 116 114 116 116 115
240 268 262 220 256 267 26 29 11 327 308 90 358 159 95 48 80 126 125 123 134 119 125 135 136 135 135 136 136 134 130 127 128 127 124 122 120 105 108 97 113 127 119 119 119 119 118 116 117
281 282 287 256 248 220 52 14 13 324 304 354 28 337 64 292 125 110 130 127 117 121 133 135 128 128 130 138 139 128 115 118 117 122 120 127 133 112 118 106 109 130 125 124 123 121 120 118 118
256 292 273 300 325 347 40 9 341 303 300 6 350 20 99 45 84 106 121 111 111 120 127 130 132 129 124 125 120 115 121 119 114 107 108 110 105 97 107 105 109 138 132 128 128 125 123 122 124
298 302 279 283 21 56 41 331 66 320 309 81 7 5 82 82 94 94 92 115 122 129 141 143 142 142 128 127 115 116 121 111 104 102 113 123 117 108 110 103 101 128 137 133 126 127 128 127 127
278 285 285 23 19 356 10 334 12 325 273 45 31 41 15 148 114 111 119 106 121 153 140 154 148 157 149 133 140 129 123 118 115 112 129 134 121 116 105 97 94 108 141 135 128 129 123 114 123
6 347 37 18 27 4 330 357 11 346 15 20 1 353 2 122 146 130 154 144 152 152 158 143 161 165 150 154 147 154 137 145 147 137 163 141 130 105 100 93 89 90 135 135 132 128 126 126 144
27 28 6 46 11 340 305 41 47 14 39 33 9 15 8 4 290 156 152 127 156 156 165 142 157 149 161 141 158 145 153 160 149 153 176 136 119 125 117 125 125 118 124 124 118 126 151 163 164
129 38 9 15 335 317 328 320 64 41 78 42 37 34 24 19 30 16 27 12 5 180 176 172 176 189 165 148 148 154 146 152 137 166 153 130 134 134 142 157 154 139 142 142 140 146 187 204 173
64 51 43 356 347 308 334 344 86 32 72 59 45 44 34 28 26 28 30 22 16 12 330 182 175 199 187 138 146 151 139 141 135 139 121 126 128 131 126 84 133 135 127 146 162 173 184 154 226
53 357 40 20 14 58 341 44 22 8 49 73 40 46 47 35 28 23 21 23 1 28 357 360 242 181 225 157 156 181 145 155 134 137 143 137 123 122 135 118 148 114 136 158 163 167 160 167 149
102 284 197 36 352 29 317 81 28 337 6 62 66 47 34 33 30 29 25 25 22 2 11 26 344 231 219 173 186 168 145 145 133 146 156 149 126 144 153 154 93 133 120 100 128 148 153 164 160
232 231 7 60 15 358 329 84 29 342 354 65 76 53 44 35 22 29 25 25 35 10 25 350 5 16 26 355 266 190 152 146 149 144 144 151 162 152 135 161 174 141 117 113 108 122 102 159 164
41 356 11 83 38 338 7 59 31 1 11 44 48 51 68 50 34 25 41 351 40 33 27 347 25 4 8 1 326 256 190 173 151 146 148 159 175 159 155 170 172 166 146 179 177 159 160 181 212
335 344 341 34 25 334 13 79 59 7 23 29 46 35 33 52 53 38 30 28 10 52 24 351 41 15 356 319 224 50 341 308 143 152 173 167 177 166 166 155 173 173 150 188 198 160 188 167 191
311 329 310 357 18 309 57 65 53 61 24 22 34 35 22 26 37 46 41 40 17 24 11 11 18 20 8 353 351 91 237 184 161 188 185 198 179 168 178 162 181 163 180 188 189 185 180 220 86
340 360 351 311 344 304 291 193 121 82 92 52 33 35 29 20 14 18 24 30 27 18 5 6 23 23 7 5 337 292 298 255 203 167 174 202 190 183 159 163 184 185 176 190 193 171 189 186 160
90 17 330 304 311 244 279 256 166 144 122 89 54 39 37 25 4 9 16 20 21 18 2 356 5 17 14 354 338 330 279 240 145 199 180 199 192 184 188 191 188 211 179 187 190 174 179 199 182
324 4 313 308 330 17 36 303 176 152 150 91 58 33 29 16 17 18 15 8 10 14 4 358 355 8 4 354 345 352 341 321 360 262 196 188 199 191 199 199 203 207 204 204 198 193 190 168 190
308 330 314 313 303 327 169 67 94 138 193 81 63 46 29 12 14 19 23 10 7 8 8 0 353 351 357 355 348 340 329 327 316 329 260 192 192 198 203 208 206 207 206 212 211 193 201 208 198
287 287 222 282 292 10 36 39 144 100 24 48 52 54 44 8 11 14 22 11 14 5 8 355 358 348 351 347 340 334 331 329 333 332 318 312 200 201 209 206 211 208 210 207 203 202 200 208 212
347 330 338 343 355 199 84 346 305 120 82 53 23 20 9 31 22 1 1 14 5 0 10 354 355 347 347 341 337 335 323 318 305 310 315 316 332 209 204 204 204 204 204 213 213 207 210 208 208
331 344 94 288 346 306 128 249 171 75 117 307 170 39 40 33 17 7 4 2 15 358 7 357 352 345 342 342 335 324 318 310 302 299 281 286 301 313 209 200 200 208 208 214 212 209 211 211 218
318 44 11 312 125 313 248 90 148 122 259 241 78 344 47 29 14 6 6 6 22 358 4 354 352 349 345 339 333 330 328 320 313 309 306 288 272 266 273 187 195 205 208 219 197 206 211 197 210
300 298 335 304 10 322 309 284 261 219 290 39 32 50 40 26 11 8 4 357 5 1 360 3 356 348 344 341 336 332 327 324 319 310 312 289 277 267 289 194 189 197 208 205 196 196 213 199 208
244 352 297 106 33 246 308 272 342 94 63 7 347 58 42 19 0 2 356 3 359 6 6 355 355 353 350 343 339 338 343 339 334 340 338 338 13 2 16 63 66 62 49 34 89 62 24 61 65
314 324 315 112 243 205 198 275 60 101 78 43 301 339 83 17 5 358 355 9 6 3 358 359 354 355 352 346 347 356 355 358 8 8 9 21 38 45 51 61 65 52 42 49 61 77 70 76 69